Location: *
(42.0175°N, 9.4056°E)
Time: 03:07:58
(UTC+00:00)

ERS-1 Rocket - Pass Details

Date: 25 August 2019
Orbit: 753 x 758 km, 98.5° (Epoch: 19 September)

Event Time Altitude Azimuth Distance (km) Brightness Sun altitude
Exits shadow 21:18:50 51° 281° (WNW) 947 3.6 -30.0°
Drops below altitude 10° 21:23:16 10° 337° (NNW) 2,287 6.3 -30.5°
Sets 21:25:38 0° 342° (NNW) 3,215 7.3 -30.7°
